Regional Weather Roundup
Issued by NWS

Home | Current Version | Previous Version | Graphics & Text | Print | Product List | Glossary On
Versions: 1 2 3 4 5 6 7 8 9 10 11 12 13 14 15 16 17 18 19 20 21 22 23 24 25 26 27 28 29 30 31 32 33 34 35 36 37 38 39 40 41 42 43 44 45 46 47 48 49 50
000
ASUS43 KBIS 122302
RWRND

NORTH DAKOTA REGIONAL WEATHER ROUNDUP
NATIONAL WEATHER SERVICE BISMARCK ND
500 PM CST TUE DEC 12 2017

NOTE: "FAIR" INDICATES FEW OR NO CLOUDS BELOW 12,000 FEET WITH NO
SIGNIFICANT WEATHER AND/OR OBSTRUCTIONS TO VISIBILITY.


NDZ001>003-009>011-017-130000-
NORTHWEST NORTH DAKOTA

CITY           SKY/WX    TMP DP  RH WIND       PRES   REMARKS
WILLISTON      CLOUDY    49  14  24 W18G26    29.71F
MINOT          CLOUDY    47  23  38 SW16      29.64F
MINOT AFB      CLOUDY    44  24  45 W16       29.62F
$$

NDZ018>021-031>035-040>046-130000-
SOUTHWEST NORTH DAKOTA

CITY           SKY/WX    TMP DP  RH WIND       PRES   REMARKS
BISMARCK       CLEAR     49  25  39 W12       29.73F
DICKINSON      CLOUDY    48  22  35 W20       29.76F
GARRISON         N/A     42  24  49 W9        29.68F
HETTINGER ARPT CLEAR     49  18  29 W12       29.83F
$$

NDZ004>008-012>016-024-026-027-054-130000-
NORTHEAST NORTH DAKOTA

CITY           SKY/WX    TMP DP  RH WIND       PRES   REMARKS
GRAND FORKS    PTCLDY    32  29  88 S10       29.64F
GRND FRKS AFB  CLEAR     34  29  80 S9        29.63F
DEVILS LAKE    CLOUDY    36  29  75 SW6       29.63F
$$

NDZ022-023-025-028>030-036>039-047>053-130000-
SOUTHEAST NORTH DAKOTA

CITY           SKY/WX    TMP DP  RH WIND       PRES   REMARKS
FARGO          CLEAR     34  29  82 S9        29.70F
JAMESTOWN      CLOUDY    38  29  70 SW12      29.68F
$$





USA.gov is the U.S. government's official web portal to all federal, state and local government web resources and services.